time_stamp(utc),avg(mph),gust(mph),direction(deg),12m_air_temp(f),sonic_u(cm/s),sonic_v(cm/s),sonic_w(cm/s),pressure,2m_air_temp(f),pyranometer(W/m^2)
"2018-06-16 00:02:07+00",5.9,6.9,,67.2,-53,-236,-13,1014.49,67,0
"2018-06-16 00:07:07+00",5.2,6.2,,67,-64,-214,2,1014.47,66.9,0
"2018-06-16 00:12:07+00",5.3,6.3,,66.9,-55,-217,-1,1014.45,66.8,0
"2018-06-16 00:17:07+00",5.6,6.6,,66.8,-62,-228,-4,1014.41,66.6,0
"2018-06-16 00:22:07+00",6.1,7.1,,66.7,-53,-252,-8,1014.5,66.4,0
"2018-06-16 00:27:07+00",6.3,7.3,,66.5,23,-260,-22,1014.5,66.3,0
"2018-06-16 00:32:07+00",5.3,6.3,,66.3,161,-142,-29,1014.6,66.2,0
"2018-06-16 00:37:07+00",4.9,5.9,,65.9,29,-192,-30,1014.63,65.8,0
"2018-06-16 00:42:07+00",8.3,10.3,,65.8,-134,-325,4,1014.64,65.4,0
"2018-06-16 00:47:07+00",6.6,7.6,,65.9,-91,-259,-7,1014.65,65.3,0
"2018-06-16 00:52:07+00",5.3,6.3,,65.9,-67,-207,-7,1014.66,65.3,0
"2018-06-16 00:57:07+00",6.0,7.0,,65.9,-129,-215,-28,1014.71,65.2,0
"2018-06-16 01:02:07+00",7.1,8.1,,66.1,-188,-261,4,1014.78,65,0
"2018-06-16 01:07:07+00",7.4,8.4,,66.3,-219,-255,9,1014.86,65.2,0
"2018-06-16 01:12:07+00",7.0,8.0,,66.3,-130,-270,-1,1014.95,65.3,0
"2018-06-16 01:17:07+00",7.2,8.2,,66.2,313,24,13,1015.26,65.3,0
"2018-06-16 01:22:07+00",9.4,10.4,,65.7,407,81,10,1015.35,65.1,0
"2018-06-16 01:27:07+00",6.2,7.2,,66,276,-26,9,1015.36,65,0
"2018-06-16 01:32:07+00",6.0,7.0,,66,258,35,9,1015.47,65,0
"2018-06-16 01:37:07+00",9.0,10.0,,65.8,396,63,20,1015.65,64.9,0
"2018-06-16 01:42:07+00",4.7,4.7,,65.9,178,-88,5,1015.62,64.9,0
"2018-06-16 01:47:07+00",5.6,6.6,,66,227,-89,-4,1015.64,64.9,0
"2018-06-16 01:52:07+00",3.9,4.9,,66.1,90,-139,3,1015.6,64.9,0
"2018-06-16 01:57:07+00",4.1,5.1,,66.1,100,-143,2,1015.72,65.1,0
"2018-06-16 02:02:07+00",5.0,6.0,,66.2,82,-195,1,1015.69,65.2,0
"2018-06-16 02:07:07+00",5.1,6.1,,66.2,107,-182,1,1015.65,65.3,0
"2018-06-16 02:12:07+00",5.4,6.4,,66.2,114,-204,4,1015.68,65.4,0
"2018-06-16 02:17:07+00",5.8,6.8,,66.1,55,-234,-4,1015.65,65.4,0
"2018-06-16 02:22:07+00",5.6,6.6,,66,14,-231,-6,1015.56,65.3,0
"2018-06-16 02:27:07+00",6.9,7.9,,66,19,-290,-6,1015.48,65.3,0
"2018-06-16 02:32:07+00",6.2,7.2,,66,66,-256,-12,1015.54,65.3,0
"2018-06-16 02:37:07+00",6.7,7.7,,66,85,-266,0,1015.56,65.3,0
"2018-06-16 02:42:07+00",5.9,6.9,,65.9,47,-245,-2,1015.6,65.3,0
"2018-06-16 02:47:07+00",7.4,8.4,,65.9,16,-305,-9,1015.65,65.3,0
"2018-06-16 02:52:07+00",6.5,9.5,,65.8,-8,-269,-3,1015.49,65.3,0
"2018-06-16 02:57:07+00",8.6,9.6,,65.8,-43,-359,-23,1015.47,65.2,0
"2018-06-16 03:02:07+00",9.6,11.6,,65.7,-117,-398,5,1015.56,65.2,0
"2018-06-16 03:07:07+00",8.0,10.0,,65.6,-82,-326,-1,1015.4,65.2,0
"2018-06-16 03:12:07+00",8.0,11.0,,65.6,-115,-328,8,1015.58,65.1,0
"2018-06-16 03:17:07+00",7.3,8.3,,65.6,-14,-305,-13,1015.58,65.2,0
"2018-06-16 03:22:07+00",7.8,9.8,,65.7,-93,-320,-7,1015.7,65.2,0
"2018-06-16 03:27:07+00",9.5,11.5,,65.9,-151,-382,0,1015.71,65.2,0
"2018-06-16 03:32:07+00",7.0,10.0,,66.1,-77,-281,1,1015.72,65.4,0
"2018-06-16 03:37:07+00",8.0,10.0,,66.1,-69,-327,-8,1015.74,65.5,0
"2018-06-16 03:42:07+00",7.4,8.4,,66.1,-24,-308,-12,1015.75,65.6,0
"2018-06-16 03:47:07+00",6.8,8.8,,66.1,-6,-285,-3,1015.63,65.6,0
"2018-06-16 03:52:07+00",7.4,8.4,,65.9,-46,-310,-21,1015.66,65.4,0
"2018-06-16 03:57:07+00",6.9,8.9,,65.8,-65,-280,-3,1015.5,65.3,0
"2018-06-16 04:02:07+00",7.2,10.2,,65.7,-104,-284,-3,1015.57,65.3,0
"2018-06-16 04:07:07+00",7.9,8.9,,65.7,-94,-323,-6,1015.54,65.3,0
"2018-06-16 04:12:07+00",7.9,10.9,,65.6,-81,-318,-7,1015.42,65.2,0
"2018-06-16 04:17:07+00",8.5,10.5,,65.6,-130,-343,5,1015.35,65.1,0
"2018-06-16 04:22:07+00",10.4,12.4,,65.6,-163,-413,-8,1015.29,65,0
"2018-06-16 04:27:07+00",10.7,11.7,,65.7,-198,-412,-10,1015.36,65,0
"2018-06-16 04:32:07+00",10.3,11.3,,65.6,-204,-398,2,1015.32,65.1,0
"2018-06-16 04:37:07+00",11.0,13.0,,65.6,-269,-416,8,1015.36,65,0
"2018-06-16 04:42:07+00",10.6,12.6,,65.6,-255,-399,-3,1015.41,64.9,0
"2018-06-16 04:47:07+00",10.1,12.1,,65.7,-265,-363,5,1015.49,65,0
"2018-06-16 04:52:07+00",10.7,11.7,,65.7,-323,-361,-5,1015.54,64.9,0
"2018-06-16 04:57:07+00",9.7,10.7,,65.6,-270,-350,13,1015.5,64.9,0
"2018-06-16 05:02:07+00",8.3,9.3,,65.5,-241,-291,1,1015.52,64.7,0
"2018-06-16 05:07:07+00",9.9,10.9,,65.5,-299,-332,9,1015.47,64.7,0
"2018-06-16 05:12:07+00",9.3,10.3,,65.5,-266,-329,1,1015.48,64.6,0
"2018-06-16 05:17:07+00",9.5,10.5,,65.5,-305,-289,3,1015.53,64.5,0
"2018-06-16 05:22:07+00",10.8,12.8,,65.4,-346,-316,7,1015.65,64.5,0
"2018-06-16 05:27:07+00",10.2,12.2,,65.4,-345,-294,5,1015.7,64.5,0
"2018-06-16 05:32:07+00",9.0,10.0,,65.5,-301,-244,8,1015.65,64.5,0
"2018-06-16 05:37:07+00",8.0,9.0,,65.5,-276,-205,9,1015.8,64.4,0
"2018-06-16 05:42:07+00",8.3,10.3,,65.6,-290,-213,14,1015.86,64.3,0
"2018-06-16 05:57:07+00",7.3,8.3,,65.7,-295,-158,15,1016.16,64.1,0
"2018-06-16 06:02:07+00",5.5,6.5,,65.5,-228,-115,6,1016.2,64,0
"2018-06-16 06:07:07+00",4.8,5.8,,65.4,-190,-105,8,1016.14,63.9,0
"2018-06-16 06:12:07+00",4.9,5.9,,65.3,-207,-77,6,1016.16,63.7,0
"2018-06-16 06:17:07+00",7.6,8.6,,65.3,-307,-82,8,1016.16,63.7,0
"2018-06-16 06:22:07+00",8.6,9.6,,65.4,-358,-83,14,1016.22,63.7,0
"2018-06-16 06:32:07+00",6.5,8.5,,65.7,-276,-33,29,1016.36,64.2,0
"2018-06-16 06:42:07+00",6.6,7.6,,65.5,-280,19,12,1016.41,64.6,0
"2018-06-16 07:02:07+00",3.0,3.0,,65,-120,-23,4,1016.33,64.3,0
"2018-06-16 07:22:07+00",4.1,5.1,,64.8,-171,-70,1,1016.34,63.5,0
"2018-06-16 07:27:07+00",3.8,3.8,,64.8,-139,-83,4,1016.31,63.3,0
"2018-06-16 07:32:07+00",5.0,6.0,,64.7,-167,-130,11,1016.39,63,0
"2018-06-16 07:42:07+00",2.4,3.4,,64.5,-92,-37,5,1016.53,62.6,0
"2018-06-16 07:47:07+00",3.2,4.2,,64.7,-96,-98,3,1016.47,62.4,0
"2018-06-16 07:52:07+00",5.1,6.1,,64.9,-141,-177,0,1016.33,62.5,0
"2018-06-16 08:02:07+00",5.5,6.5,,65.3,-174,-150,9,1016.23,62.5,0
"2018-06-16 08:07:07+00",4.6,5.6,,65.1,-141,-151,5,1016.27,62.4,0
"2018-06-16 08:12:07+00",3.8,3.8,,64.6,-29,-154,4,1016.32,62.3,0
"2018-06-16 08:17:07+00",4.5,5.5,,64.6,-48,-182,-1,1016.3,62.4,0
"2018-06-16 08:22:07+00",4.4,5.4,,65,-108,-162,0,1016.38,62.7,0
"2018-06-16 08:27:07+00",4.7,4.7,,65.1,-150,-137,0,1016.42,62.8,0
"2018-06-16 08:32:07+00",4.7,4.7,,65.2,-202,-90,9,1016.6,62.7,0
"2018-06-16 08:37:07+00",5.6,6.6,,65.1,-234,-23,16,1016.75,62.7,0
"2018-06-16 08:42:07+00",4.8,5.8,,64.9,-191,59,17,1016.67,62.4,0
"2018-06-16 08:47:07+00",4.4,5.4,,64.8,-188,16,7,1016.65,62.4,0
"2018-06-16 08:52:07+00",4.4,4.4,,64.7,-192,14,10,1016.54,62.4,0
"2018-06-16 08:57:07+00",4.6,5.6,,64.6,-201,20,8,1016.57,62.4,0
"2018-06-16 09:02:07+00",5.8,6.8,,64.7,-250,-8,7,1016.58,62.4,0
"2018-06-16 09:07:07+00",6.6,7.6,,64.8,-291,4,-8,1016.72,62.3,0
"2018-06-16 09:12:07+00",6.7,6.7,,64.7,-291,58,-6,1016.72,62.4,0
"2018-06-16 09:17:07+00",5.9,6.9,,64.4,-252,40,-10,1016.69,62.5,0
"2018-06-16 09:22:07+00",6.9,7.9,,64.3,-301,40,-10,1016.82,62.5,0
"2018-06-16 09:27:07+00",7.1,8.1,,64.3,-307,81,-16,1016.86,62.4,0
"2018-06-16 09:32:07+00",5.9,6.9,,64.2,-246,62,21,1016.91,62.5,0
"2018-06-16 09:37:07+00",6.5,7.5,,63.9,-285,46,28,1016.81,62.5,0
"2018-06-16 09:42:07+00",4.8,4.8,,63.8,-206,45,16,1016.78,62.4,0
"2018-06-16 09:47:07+00",5.8,5.8,,63.5,-255,33,21,1016.8,62.2,0
"2018-06-16 09:52:07+00",4.7,4.7,,63.6,-204,6,16,1016.83,62.2,0
"2018-06-16 09:57:07+00",4.4,4.4,,63.6,-190,11,15,1016.73,62.1,0
"2018-06-16 10:02:07+00",4.6,4.6,,63.6,-198,6,10,1016.82,62.1,0
"2018-06-16 10:07:07+00",5.1,5.1,,63.6,-219,6,14,1016.84,62.2,2
"2018-06-16 10:12:07+00",5.4,5.4,,63.7,-238,6,15,1016.85,62.2,7.3
"2018-06-16 10:17:07+00",5.3,5.3,,63.7,-224,-14,12,1016.88,62.3,14.4
"2018-06-16 10:22:07+00",4.6,5.6,,63.8,-192,-29,13,1016.94,62.5,22.5
"2018-06-16 10:27:07+00",4.9,5.9,,63.9,-205,-7,9,1016.98,62.9,30
"2018-06-16 10:32:07+00",4.7,4.7,,64,-198,-2,8,1017.09,63.5,38.1
"2018-06-16 10:37:07+00",5.3,5.3,,64.1,-216,-39,6,1017.1,64.1,46.2
"2018-06-16 10:42:07+00",4.4,5.4,,64,-177,-63,7,1017.12,64.8,55
"2018-06-16 10:47:07+00",3.3,4.3,,64.2,-113,47,25,1017.04,65.6,63.2
"2018-06-16 10:52:07+00",0.7,1.7,,64.4,-36,30,3,1017.1,66.5,72.2
"2018-06-16 10:57:07+00",1.5,1.5,,64.5,-52,-2,-5,1017.03,67.3,81.2
"2018-06-16 11:02:07+00",2.2,3.2,,64.7,-44,-73,-7,1017.02,67.3,78.4
"2018-06-16 11:07:07+00",2.3,3.3,,64.8,-75,19,37,1017.09,67.8,101.2
"2018-06-16 11:12:07+00",2.4,4.4,,65,-105,-20,15,1017.08,68.3,109.1
"2018-06-16 11:17:07+00",5.8,6.8,,64.7,-242,-21,-7,1017.1,68.5,119.4
"2018-06-16 11:22:07+00",5.0,6.0,,64.6,-209,-14,-4,1017.16,68.7,129.1
"2018-06-16 11:27:07+00",4.8,4.8,,64.6,-187,71,20,1017.25,69,138.2
"2018-06-16 11:32:07+00",5.3,6.3,,64.6,-224,64,12,1017.3,69.1,148.1
"2018-06-16 11:37:07+00",4.5,5.5,,64.6,-182,56,15,1017.36,69.1,159.4
"2018-06-16 11:42:07+00",5.3,6.3,,64.7,-194,120,11,1017.4,69.4,166.6
"2018-06-16 11:47:07+00",3.2,4.2,,64.7,-115,50,30,1017.36,69.2,175.8
"2018-06-16 11:52:07+00",4.4,5.4,,64.8,-151,108,23,1017.4,69.2,186.9
"2018-06-16 11:57:07+00",4.7,5.7,,64.8,-149,131,14,1017.51,69,195.1
"2018-06-16 12:02:07+00",3.8,4.8,,64.9,-138,52,47,1017.37,68.9,203.2
"2018-06-16 12:07:07+00",5.1,6.1,,64.9,-204,80,18,1017.43,68.9,211
"2018-06-16 12:12:07+00",5.3,6.3,,64.9,-178,149,20,1017.55,68.7,220.9
"2018-06-16 12:17:07+00",5.2,7.2,,65.1,-154,151,18,1017.47,68.5,228.6
"2018-06-16 12:22:07+00",4.6,5.6,,65.2,-152,123,17,1017.49,68.6,227.6
"2018-06-16 12:27:07+00",5.4,6.4,,65.4,-193,132,5,1017.5,68.8,244.2
"2018-06-16 12:32:07+00",4.0,5.0,,65.7,-160,70,29,1017.56,69,251.1
"2018-06-16 12:37:07+00",4.8,5.8,,66.1,-177,97,7,1017.52,69.7,257.7
"2018-06-16 12:42:07+00",4.9,5.9,,66.4,-149,142,17,1017.58,70.2,252.4
"2018-06-16 12:47:07+00",5.6,6.6,,66.8,-229,95,40,1017.53,70.5,273.6
"2018-06-16 12:52:07+00",4.3,5.3,,67.2,-138,112,18,1017.45,71.1,282.2
"2018-06-16 12:57:07+00",4.8,5.8,,67.7,-163,109,-5,1017.38,71.5,290.1
"2018-06-16 13:02:07+00",4.1,5.1,,68.1,-145,100,10,1017.39,71.8,297.8
"2018-06-16 13:07:07+00",4.1,5.1,,68.6,-139,109,23,1017.42,72.2,303.4
"2018-06-16 13:12:07+00",4.0,5.0,,68.9,-115,112,3,1017.26,72.6,314.9
"2018-06-16 13:17:07+00",2.9,3.9,,69.3,-93,64,9,1017.27,73.2,324.1
"2018-06-16 13:22:07+00",3.2,4.2,,69.8,-82,92,19,1017.21,74,333.5
"2018-06-16 13:27:07+00",4.5,5.5,,70.3,-169,85,-5,1017.28,74.8,343.2
"2018-06-16 13:32:07+00",4.0,5.0,,70.7,-105,129,-3,1017.33,75.2,352.6
"2018-06-16 13:37:07+00",4.2,5.2,,71.2,-161,74,27,1017.42,75.5,362.6
"2018-06-16 13:42:07+00",3.7,4.7,,71.6,-104,108,17,1017.48,75.9,372.1
"2018-06-16 13:47:07+00",3.2,4.2,,71.9,-65,105,-1,1017.46,76,379.6
"2018-06-16 13:52:07+00",2.9,2.9,,72.3,-85,76,26,1017.45,76.5,387.5
"2018-06-16 13:57:07+00",3.8,4.8,,72.7,-101,121,5,1017.45,77,392.6
"2018-06-16 14:02:07+00",3.2,4.2,,73.2,-109,55,45,1017.4,77.5,408.5
"2018-06-16 14:07:07+00",3.9,3.9,,73.5,-108,114,-6,1017.39,78.1,394.2
"2018-06-16 14:12:07+00",3.5,4.5,,73.7,-121,78,-27,1017.44,78.3,420.6
"2018-06-16 14:17:07+00",4.1,5.1,,73.8,-159,-21,11,1017.43,78.8,431
"2018-06-16 14:22:07+00",0.6,0.6,,74,-6,2,-8,1017.44,79.4,441.3
"2018-06-16 14:27:07+00",2.7,3.7,,74.5,58,-85,19,1017.4,79.1,444.1
"2018-06-16 14:32:07+00",4.5,5.5,,74.7,-46,-177,4,1017.24,78.2,451.7
"2018-06-16 14:37:07+00",5.0,7.0,,74.4,120,-175,-16,1017.21,77.6,459.9
"2018-06-16 14:42:07+00",5.4,6.4,,74.4,126,-182,19,1017.28,77.5,459.3
"2018-06-16 14:47:07+00",6.6,7.6,,74,149,-242,-8,1017.22,77,459.1
"2018-06-16 14:52:07+00",4.4,5.4,,74.2,35,-169,9,1017.2,76.4,473
"2018-06-16 14:57:07+00",5.1,6.1,,74.7,100,-180,7,1017.2,76.8,472.6
"2018-06-16 15:02:07+00",6.2,8.2,,74.8,173,-192,6,1017.19,77.2,480
"2018-06-16 15:07:07+00",5.6,6.6,,75.1,230,-69,-1,1017.22,77.6,489.1
"2018-06-16 15:12:07+00",2.8,3.8,,75.2,-58,51,-22,1017.34,77.9,486.3
"2018-06-16 15:17:07+00",8.3,10.3,,76.6,52,347,21,1017.3,78.8,495.6
"2018-06-16 15:22:07+00",9.7,11.7,,75.7,-257,340,22,1017.29,78.5,500.2
"2018-06-16 15:27:07+00",10.4,14.4,,76.8,-303,343,43,1017.15,78.7,507.3
"2018-06-16 15:32:07+00",8.5,9.5,,76.9,-223,293,17,1017.3,78.5,514.6
"2018-06-16 15:37:07+00",8.5,10.5,,77.5,-103,356,36,1017.29,79,523.2
"2018-06-16 15:42:07+00",8.5,9.5,,77.4,-261,264,20,1017.19,79.3,530.4
"2018-06-16 15:47:07+00",9.8,11.8,,77.3,-279,317,34,1017.09,79.2,525.7
"2018-06-16 15:52:07+00",7.4,8.4,,77.4,-26,308,15,1017.14,79.3,526.3
"2018-06-16 15:57:07+00",6.7,9.7,,77.1,207,-110,51,1017.19,79.9,531.4
"2018-06-16 16:02:07+00",9.0,10.0,,73.1,244,-299,-7,1017.15,77,526.2
"2018-06-16 16:07:07+00",10.5,11.5,,71.5,303,-345,10,1017.11,75.3,511.9
"2018-06-16 16:12:07+00",11.4,12.4,,71.8,307,-385,-13,1017.06,75.1,504.3
"2018-06-16 16:17:07+00",11.2,13.2,,71.3,229,-427,2,1017,74.2,514.2
"2018-06-16 16:22:07+00",10.7,11.7,,71.3,216,-412,-11,1017.05,74.1,509.8
"2018-06-16 16:27:07+00",11.3,13.3,,71.3,129,-477,-20,1016.95,74.1,508.8
"2018-06-16 16:32:07+00",10.5,12.5,,71.5,204,-406,17,1016.88,74.3,524.2
"2018-06-16 16:37:07+00",11.9,12.9,,71,252,-455,8,1016.89,74,513.4
"2018-06-16 16:42:07+00",11.6,12.6,,70.7,302,-403,-17,1016.83,73.7,511.8
"2018-06-16 16:47:07+00",12.6,14.6,,70.4,228,-499,-16,1016.96,73.3,512.4
"2018-06-16 16:52:07+00",14.3,15.3,,69.6,300,-536,-30,1016.8,72.4,476.2
"2018-06-16 16:57:07+00",13.0,16.0,,69.5,281,-485,-6,1016.66,72.3,528.4
"2018-06-16 17:02:07+00",11.3,13.3,,70.3,203,-447,0,1016.8,72.8,450.3
"2018-06-16 17:07:07+00",12.2,13.2,,70,251,-463,5,1016.82,72.6,536.9
"2018-06-16 17:12:07+00",13.4,14.4,,70,196,-544,-29,1016.66,72.6,515.5
"2018-06-16 17:17:07+00",13.0,13.0,,70.2,272,-495,-27,1016.66,72.6,532.8
"2018-06-16 17:22:07+00",13.6,15.6,,69.8,230,-535,-32,1016.57,72.5,529.7
"2018-06-16 17:27:07+00",12.2,14.2,,70.1,100,-504,-22,1016.71,72.7,528.1
"2018-06-16 17:32:07+00",14.1,16.1,,69.9,209,-564,-24,1016.51,72.7,540
"2018-06-16 17:37:07+00",13.6,15.6,,69.7,300,-509,-18,1016.52,72.6,550.7
"2018-06-16 17:42:07+00",14.2,15.2,,70,359,-497,-10,1016.43,72.9,549
"2018-06-16 17:47:07+00",14.1,17.1,,69.8,280,-538,-23,1016.37,72.5,544.4
"2018-06-16 17:52:07+00",13.8,15.8,,69.9,278,-533,-23,1016.41,72.5,551.7
"2018-06-16 17:57:07+00",13.3,14.3,,70.2,315,-479,-8,1016.48,72.9,539.7
"2018-06-16 18:02:07+00",13.2,15.2,,70.4,338,-461,28,1016.45,73.1,541.1
"2018-06-16 18:07:07+00",14.7,16.7,,70.3,281,-577,-5,1016.42,73.1,547.8
"2018-06-16 18:12:07+00",14.2,17.2,,70.4,120,-598,-14,1016.49,72.9,552.1
"2018-06-16 18:17:07+00",14.2,17.2,,70,155,-581,-6,1016.43,72.6,545.9
"2018-06-16 18:22:07+00",13.9,15.9,,70,149,-575,-17,1016.39,72.6,546.2
"2018-06-16 18:27:07+00",13.7,15.7,,70.1,159,-564,-9,1016.43,72.7,541.9
"2018-06-16 18:32:07+00",14.4,16.4,,69.9,163,-589,-23,1016.28,72.5,545.2
"2018-06-16 18:37:07+00",15.3,17.3,,70.2,132,-646,-45,1016.32,72.4,539.2
"2018-06-16 18:42:07+00",10.9,14.9,,70.8,73,-459,4,1016.33,72.7,534.4
"2018-06-16 18:47:07+00",13.3,16.3,,70.6,103,-550,-29,1016.41,72.6,531.8
"2018-06-16 18:52:07+00",11.9,14.9,,71.2,130,-495,-8,1016.39,73,526.7
"2018-06-16 18:57:07+00",13.4,16.4,,71.2,82,-554,-13,1016.44,73.1,522.8
"2018-06-16 19:02:07+00",13.7,16.7,,70.7,50,-582,-16,1016.39,72.7,514.2
"2018-06-16 19:07:07+00",13.3,16.3,,70.9,109,-515,-1,1016.27,72.8,509.6
"2018-06-16 19:12:07+00",13.2,18.2,,70.8,90,-553,-2,1016.26,72.9,506.5
"2018-06-16 19:17:07+00",12.5,17.5,,71.1,80,-512,-4,1016.13,73.1,494.3
"2018-06-16 19:22:07+00",14.7,16.7,,71,99,-613,-21,1016.17,72.9,487.3
"2018-06-16 19:27:07+00",14.3,16.3,,70.8,105,-597,-35,1016.05,72.9,479.9
"2018-06-16 19:32:07+00",13.5,16.5,,70.9,157,-563,21,1016.06,73.1,471.1
"2018-06-16 19:37:07+00",11.6,14.6,,70.9,82,-502,-4,1015.97,73.1,462.1
"2018-06-16 19:42:07+00",12.5,15.5,,71.3,92,-521,-11,1016,73.3,451.4
"2018-06-16 19:47:07+00",10.4,13.4,,71.5,75,-448,8,1015.9,73.4,443.9
"2018-06-16 19:52:07+00",14.1,16.1,,71.5,179,-571,-21,1015.9,73.5,433.6
"2018-06-16 19:57:07+00",13.4,14.4,,71,237,-533,-16,1015.9,73.4,428.6
"2018-06-16 20:02:07+00",11.9,14.9,,71.5,174,-508,3,1015.86,73.6,417.7
"2018-06-16 20:07:07+00",12.3,16.3,,72,157,-502,0,1015.93,74.1,405.8
"2018-06-16 20:12:07+00",10.5,14.5,,72.6,44,-458,-17,1015.88,74.4,391.2
"2018-06-16 20:17:07+00",11.7,14.7,,72.5,64,-489,-12,1015.81,74,377.5
"2018-06-16 20:22:07+00",11.2,15.2,,72.4,108,-451,16,1015.92,74.3,366.2
"2018-06-16 20:27:07+00",12.0,15.0,,72.2,107,-492,-2,1015.98,74.3,265.2
"2018-06-16 20:32:07+00",11.8,13.8,,72.1,158,-470,-16,1015.83,74.1,40.8
"2018-06-16 20:37:07+00",10.4,13.4,,72.2,98,-432,1,1015.9,74.2,37.6
"2018-06-16 20:42:07+00",12.5,13.5,,71.6,218,-498,-2,1015.81,73.6,46.2
"2018-06-16 20:47:07+00",11.9,13.9,,71.6,147,-492,-13,1015.83,73.3,50.9
"2018-06-16 20:52:07+00",12.8,14.8,,71.3,193,-513,-28,1015.82,73.1,52.4
"2018-06-16 20:57:07+00",12.2,14.2,,71.3,198,-483,-6,1015.74,72.8,65.2
"2018-06-16 21:02:07+00",13.7,15.7,,71.3,212,-552,-34,1015.8,73,286.3
"2018-06-16 21:07:07+00",11.6,12.6,,71.5,119,-468,15,1015.7,73.2,277.6
"2018-06-16 21:12:07+00",12.5,15.5,,72.4,136,-513,-3,1015.63,73.9,263
"2018-06-16 21:17:07+00",11.4,13.4,,72.6,204,-452,2,1015.58,74.1,171.7
"2018-06-16 21:22:07+00",13.5,15.5,,72.7,268,-524,-20,1015.54,74.2,32.5
"2018-06-16 21:27:07+00",14.3,16.3,,72,270,-561,-26,1015.45,73.8,230.2
"2018-06-16 21:32:07+00",14.0,16.0,,72.1,291,-538,4,1015.45,73.7,220.8
"2018-06-16 21:37:07+00",14.8,15.8,,72.1,335,-551,-22,1015.55,73.6,215.9
"2018-06-16 21:42:07+00",13.3,15.3,,72.5,254,-510,0,1015.55,73.8,218
"2018-06-16 21:47:07+00",12.5,16.5,,72.5,293,-454,-5,1015.55,73.9,211.9
"2018-06-16 21:52:07+00",14.7,16.7,,71.7,302,-577,-39,1015.49,73.2,200.3
"2018-06-16 21:57:07+00",14.0,16.0,,71.3,283,-530,-8,1015.6,72.8,189.9
"2018-06-16 22:02:07+00",14.0,15.0,,71.6,255,-553,-3,1015.63,72.8,178.8
"2018-06-16 22:07:07+00",15.0,17.0,,71.6,186,-598,-17,1015.64,72.7,175.7
"2018-06-16 22:12:07+00",13.8,16.8,,71.6,176,-554,-12,1015.83,72.7,172.9
"2018-06-16 22:17:07+00",13.5,16.5,,71.5,194,-527,-4,1015.8,72.6,134.4
"2018-06-16 22:22:07+00",14.8,16.8,,71.3,248,-593,-6,1015.87,72.4,155.2
"2018-06-16 22:27:07+00",14.3,18.3,,71.6,172,-588,-13,1015.86,72.5,133.7
"2018-06-16 22:32:07+00",15.9,17.9,,71.5,178,-667,-32,1015.82,72.3,113.8
"2018-06-16 22:37:07+00",14.4,17.4,,71.5,182,-601,-15,1015.96,72.3,117.2
"2018-06-16 22:42:07+00",16.3,18.3,,71.3,142,-678,-26,1015.97,72,89.9
"2018-06-16 22:47:07+00",15.5,17.5,,71,213,-633,-32,1015.98,71.8,87
"2018-06-16 22:52:07+00",14.2,17.2,,71.2,32,-596,-20,1016,71.6,38.3
"2018-06-16 22:57:07+00",12.7,17.7,,71.1,56,-546,-13,1015.99,71.5,15
"2018-06-16 23:02:07+00",14.8,17.8,,71.1,81,-631,-23,1015.85,71.3,13.3
"2018-06-16 23:07:07+00",11.9,15.9,,70.8,74,-492,2,1015.75,71.1,23.2
"2018-06-16 23:12:07+00",14.6,18.6,,70.8,171,-597,-9,1015.63,71.1,46
"2018-06-16 23:17:07+00",11.7,15.7,,70.9,101,-488,-3,1015.58,71.1,15
"2018-06-16 23:22:07+00",11.9,15.9,,70.8,13,-505,-8,1015.62,71,10.6
"2018-06-16 23:27:07+00",13.6,16.6,,70.8,-53,-564,-31,1015.44,70.9,7.9
"2018-06-16 23:32:07+00",14.9,18.9,,70.8,-35,-625,-50,1015.49,70.8,4.3
"2018-06-16 23:37:07+00",13.3,16.3,,70.8,4,-547,-18,1015.55,70.8,2.4
"2018-06-16 23:42:07+00",11.5,13.5,,70.8,46,-487,-18,1015.58,70.8,4.5
"2018-06-16 23:47:07+00",9.3,12.3,,70.8,-40,-384,-14,1015.72,70.8,0
"2018-06-16 23:52:07+00",9.8,11.8,,71,0,-414,-30,1015.79,70.8,0
"2018-06-16 23:57:07+00",10.3,13.3,,70.9,-1,-432,-32,1015.74,70.7,0
